Regional Weather Roundup
Issued by NWS

Home | Current Version | Previous Version | Graphics & Text | Print | Product List | Glossary On
Versions: 1 2 3 4 5 6 7 8 9 10 11 12 13 14 15 16 17 18 19 20 21 22 23 24 25 26 27 28 29 30 31 32 33 34 35 36 37 38 39 40 41 42 43 44 45 46 47 48 49 50
000
ASUS43 KLMK 210510
RWRKY
KENTUCKY REGIONAL WEATHER ROUNDUP
NATIONAL WEATHER SERVICE LOUISVILLE KY
100 AM EDT TUE APR 21 2015

NOTE "FAIR" INDICATES FEW OR NO CLOUDS BELOW 12,000 FEET
WITH NO SIGNIFICANT WEATHER AND/OR OBSTRUCTIONS TO VISIBILITY.

KYZ001>023-026-027-061>063-070>075-210600-
WESTERN AND SOUTH CENTRAL KENTUCKY

CITY           SKY/WX    TMP DP  RH WIND       PRES   REMARKS
PADUCAH        PTCLDY    46  41  82 SW5       29.90R
HENDERSON      CLEAR     45  36  70 SW5       29.87R
OWENSBORO      PTCLDY    47  41  80 SW6       29.88R
HOPKINSVILLE   MOCLDY    53  39  58 NW3       29.90
BOWLING GREEN  CLOUDY    54  39  57 NW3       29.90R
GLASGOW        CLOUDY    50  41  71 CALM      29.90R
$$

KYZ024-025-028>034-038-045-046-053-210600-
NORTH CENTRAL KENTUCKY

CITY           SKY/WX    TMP DP  RH WIND       PRES   REMARKS
LOUISVILLE/SDF PTCLDY    50  35  56 W9        29.86R
LOUISVILLE/LOU PTCLDY    48  35  60 SW6       29.86R
FORT KNOX      PTCLDY    46  36  66 SW3       29.85R
$$

KYZ035>037-039>044-047>052-055>060-089>105-210600-
NORTHEAST KENTUCKY

CITY           SKY/WX    TMP DP  RH WIND       PRES   REMARKS
LEXINGTON      CLOUDY    49  34  56 W8        29.85R
COVINGTON      MOCLDY    48  34  58 W9G16     29.79S
FRANKFORT      MOCLDY    48  34  58 W5        29.84R
$$

KYZ054-064>069-076>088-106>120-210600-
SOUTHEAST KENTUCKY

CITY           SKY/WX    TMP DP  RH WIND       PRES   REMARKS
JACKSON        CLOUDY    50  44  80 SW3       29.85R
LONDON         MOCLDY    51  46  83 W3        29.87R
SOMERSET       CLOUDY    50  45  81 W3        29.89R
MIDDLESBORO    PTCLDY    50  47  87 CALM      29.88R
MONTICELLO     MOCLDY    52  50  93 CALM      29.91R
$$



USA.gov is the U.S. government's official web portal to all federal, state and local government web resources and services.